EWG79M EETN-EETN

Flight info

Callsign EWG79M
Flight time 0h 21m
Altitude 4000
Route VEMOX
Aircraft A319/M-SDE3FGHIRWY/LB1

Departure

Time 2026-05-04 19:05
Airport Lennart Meri Tallinn Airport (EETN)

Arrival

Time 2026-05-04 19:26
Airport Lennart Meri Tallinn Airport (EETN)
Time Latitude Longitude Altitude Speed Heading
2026-05-04 18:47 59.41586 24.80278 162 ft 0 kts
2026-05-04 18:54 59.41583 24.80278 162 ft 2 kts
2026-05-04 18:54 59.41565 24.80277 162 ft 2 kts
2026-05-04 18:54 59.41548 24.80276 162 ft 3 kts 12°
2026-05-04 18:55 59.41531 24.80264 162 ft 3 kts 45°
2026-05-04 18:55 59.41522 24.80196 162 ft 3 kts 102°
2026-05-04 18:55 59.41527 24.80157 162 ft 3 kts 100°
2026-05-04 18:56 59.41529 24.80133 162 ft 0 kts 90°
2026-05-04 18:56 59.41529 24.80132 162 ft 0 kts 90°
2026-05-04 18:58 59.41529 24.80133 162 ft 1 kts 90°
2026-05-04 18:58 59.41529 24.80194 162 ft 8 kts 89°
2026-05-04 18:59 59.41527 24.80333 162 ft 12 kts 91°
2026-05-04 18:59 59.41514 24.80526 162 ft 16 kts 102°
2026-05-04 18:59 59.41506 24.80772 162 ft 20 kts 90°
2026-05-04 18:59 59.41506 24.81061 162 ft 20 kts 90°
2026-05-04 19:00 59.41506 24.81302 162 ft 17 kts 90°
2026-05-04 19:00 59.41504 24.81557 162 ft 21 kts 91°
2026-05-04 19:00 59.41503 24.81835 162 ft 18 kts 90°
2026-05-04 19:00 59.41502 24.82052 162 ft 17 kts 90°
2026-05-04 19:01 59.41501 24.82311 162 ft 21 kts 90°
2026-05-04 19:01 59.41500 24.82621 162 ft 25 kts 90°
2026-05-04 19:01 59.41499 24.82981 162 ft 28 kts 90°
2026-05-04 19:01 59.41498 24.83385 162 ft 29 kts 89°
2026-05-04 19:02 59.41498 24.83675 162 ft 20 kts 90°
2026-05-04 19:02 59.41497 24.83970 162 ft 23 kts 89°
2026-05-04 19:02 59.41497 24.84312 162 ft 27 kts 90°
2026-05-04 19:02 59.41495 24.84695 162 ft 26 kts 91°
2026-05-04 19:03 59.41493 24.84919 162 ft 10 kts 93°
2026-05-04 19:03 59.41451 24.85010 162 ft 9 kts 171°
2026-05-04 19:03 59.41373 24.85012 162 ft 13 kts 179°
2026-05-04 19:03 59.41321 24.84980 162 ft 6 kts 249°
2026-05-04 19:04 59.41321 24.84921 162 ft 0 kts 271°
2026-05-04 19:04 59.41322 24.84832 162 ft 31 kts 271°
2026-05-04 19:04 59.41322 24.83924 163 ft 100 kts 269°
2026-05-04 19:04 59.41324 24.82148 279 ft 150 kts 270°
2026-05-04 19:05 59.41332 24.80039 900 ft 164 kts 270°
2026-05-04 19:05 59.41341 24.77708 1683 ft 175 kts 269°
2026-05-04 19:05 59.41339 24.75245 2418 ft 189 kts 270°
2026-05-04 19:05 59.41345 24.72386 2677 ft 229 kts 270°
2026-05-04 19:06 59.41409 24.69172 2942 ft 240 kts 280°
2026-05-04 19:06 59.42151 24.66235 3209 ft 246 kts 309°
2026-05-04 19:06 59.43596 24.64418 3461 ft 255 kts 338°
2026-05-04 19:06 59.45389 24.64131 3722 ft 263 kts 358°
2026-05-04 19:07 59.47213 24.64456 3933 ft 266 kts
2026-05-04 19:07 59.48904 24.65977 3994 ft 269 kts 35°
2026-05-04 19:07 59.50002 24.68848 4000 ft 262 kts 66°
2026-05-04 19:07 59.50309 24.72331 4006 ft 258 kts 88°
2026-05-04 19:08 59.50335 24.75858 4005 ft 257 kts 90°
2026-05-04 19:08 59.50330 24.79377 3975 ft 257 kts 90°
2026-05-04 19:08 59.50320 24.82881 3762 ft 255 kts 90°
2026-05-04 19:08 59.50310 24.86354 3557 ft 253 kts 90°
2026-05-04 19:09 59.50294 24.89805 3350 ft 252 kts 90°
2026-05-04 19:09 59.50273 24.93235 3148 ft 249 kts 90°
2026-05-04 19:09 59.50253 24.96637 3023 ft 248 kts 90°
2026-05-04 19:09 59.50234 24.99966 2999 ft 246 kts 90°
2026-05-04 19:10 59.50215 25.03347 2876 ft 245 kts 90°
2026-05-04 19:10 59.50197 25.06657 2675 ft 239 kts 90°
2026-05-04 19:10 59.50178 25.09897 2478 ft 234 kts 91°
2026-05-04 19:10 59.49811 25.12919 2282 ft 225 kts 123°
2026-05-04 19:11 59.48711 25.14926 2186 ft 214 kts 161°
2026-05-04 19:11 59.47280 25.15564 2196 ft 209 kts 178°
2026-05-04 19:11 59.45844 25.15828 2198 ft 205 kts 180°
2026-05-04 19:11 59.44474 25.16031 2200 ft 191 kts 181°
2026-05-04 19:12 59.43196 25.15708 2216 ft 182 kts 204°
2026-05-04 19:12 59.41462 25.12532 2202 ft 171 kts 248°
2026-05-04 19:12 59.41215 25.10273 2202 ft 170 kts 269°
2026-05-04 19:13 59.41225 25.07962 2191 ft 165 kts 271°
2026-05-04 19:13 59.41237 25.05790 2063 ft 155 kts 271°
2026-05-04 19:13 59.41247 25.03721 1889 ft 148 kts 270°
2026-05-04 19:13 59.41256 25.01742 1703 ft 141 kts 270°
2026-05-04 19:14 59.41265 24.99875 1517 ft 132 kts 270°
2026-05-04 19:14 59.41272 24.98155 1355 ft 120 kts 270°
2026-05-04 19:14 59.41278 24.96553 1183 ft 115 kts 270°
2026-05-04 19:14 59.41284 24.94994 1022 ft 113 kts 270°
2026-05-04 19:15 59.41290 24.93464 869 ft 112 kts 270°
2026-05-04 19:15 59.41298 24.91940 711 ft 112 kts 270°
2026-05-04 19:15 59.41306 24.90408 576 ft 115 kts 270°
2026-05-04 19:15 59.41307 24.88813 440 ft 118 kts 269°
2026-05-04 19:16 59.41311 24.87225 269 ft 116 kts 270°
2026-05-04 19:16 59.41317 24.85533 371 ft 137 kts 270°
2026-05-04 19:16 59.41329 24.83581 1246 ft 144 kts 270°
2026-05-04 19:16 59.41349 24.81594 1974 ft 155 kts 271°
2026-05-04 19:17 59.41660 24.79414 2153 ft 177 kts 302°
2026-05-04 19:17 59.42695 24.78067 2199 ft 193 kts 341°
2026-05-04 19:17 59.44079 24.77975 2203 ft 205 kts 359°
2026-05-04 19:17 59.45509 24.78184 2198 ft 206 kts
2026-05-04 19:18 59.46453 24.78452 2189 ft 210 kts 12°
2026-05-04 19:18 59.47926 24.80917 2203 ft 220 kts 62°
2026-05-04 19:18 59.48235 24.83854 2215 ft 221 kts 86°
2026-05-04 19:18 59.48256 24.86881 2208 ft 221 kts 90°
2026-05-04 19:19 59.48246 24.89909 2207 ft 221 kts 91°
2026-05-04 19:19 59.48244 24.91911 2205 ft 221 kts 90°
2026-05-04 19:19 59.48246 24.94933 2204 ft 220 kts 90°
2026-05-04 19:19 59.48241 24.97950 2206 ft 221 kts 90°
2026-05-04 19:20 59.48235 25.00972 2204 ft 221 kts 90°
2026-05-04 19:20 59.48231 25.03993 2202 ft 221 kts 90°
2026-05-04 19:20 59.48227 25.07014 2203 ft 221 kts 90°
2026-05-04 19:20 59.48222 25.10039 2202 ft 220 kts 91°
2026-05-04 19:21 59.47856 25.12908 2192 ft 218 kts 123°
2026-05-04 19:21 59.46752 25.14819 2198 ft 212 kts 161°
2026-05-04 19:21 59.45334 25.15387 2211 ft 207 kts 178°
2026-05-04 19:21 59.43903 25.15595 2204 ft 204 kts 183°
2026-05-04 19:22 59.42614 25.14997 2202 ft 184 kts 211°
2026-05-04 19:22 59.41691 25.13398 2203 ft 174 kts 238°
2026-05-04 19:22 59.41246 25.11245 2203 ft 170 kts 261°
2026-05-04 19:22 59.41218 25.08959 2205 ft 170 kts 271°
2026-05-04 19:23 59.41232 25.06647 2130 ft 169 kts 271°
2026-05-04 19:23 59.41244 25.04384 1944 ft 159 kts 270°
2026-05-04 19:23 59.41254 25.02311 1756 ft 145 kts 270°
2026-05-04 19:23 59.41262 25.00410 1571 ft 133 kts 270°
2026-05-04 19:24 59.41270 24.98656 1394 ft 125 kts 270°
2026-05-04 19:24 59.41277 24.96980 1226 ft 122 kts 270°
2026-05-04 19:24 59.41284 24.95312 1054 ft 122 kts 269°
2026-05-04 19:24 59.41290 24.93706 900 ft 114 kts 270°
2026-05-04 19:25 59.41295 24.92177 719 ft 111 kts 269°
2026-05-04 19:25 59.41298 24.90654 550 ft 114 kts 270°
2026-05-04 19:25 59.41308 24.89061 422 ft 119 kts 270°
2026-05-04 19:25 59.41314 24.87458 259 ft 115 kts 270°
2026-05-04 19:26 59.41319 24.85935 163 ft 100 kts 270°
2026-05-04 19:26 59.41320 24.84804 162 ft 69 kts 270°
2026-05-04 19:26 59.41322 24.83836 164 ft 71 kts 270°
2026-05-04 19:26 59.41323 24.83056 161 ft 38 kts 270°
2026-05-04 19:27 59.41364 24.82675 160 ft 23 kts 293°
2026-05-04 19:27 59.41424 24.82458 162 ft 19 kts 300°
2026-05-04 19:27 59.41471 24.82301 162 ft 21 kts 300°